• In Uzbekistan
  • List of Countries
  • For 7 days
  • Water Temperature
  • Satellite Maps
  • Weather Map
  • Weather Widgets
  • user-avatar
    Login

    Hourly Weather Yulara

    Today, 24 October, Wednesday

    Time Temperature Precipitation Wind Pressure Humidity
    00:00 +26°C° 0 mm 8 mps 717 mmHg 20%
    01:00 +26°C° 0 mm 8 mps 717 mmHg 20%
    02:00 +24°C° 0 mm 7 mps 716 mmHg 21%
    03:00 +24°C° 0 mm 7 mps 716 mmHg 21%
    04:00 +23°C° 0 mm 7 mps 716 mmHg 21%
    05:00 +23°C° 0 mm 7 mps 717 mmHg 22%
    06:00 +22°C° 0 mm 7 mps 717 mmHg 22%
    07:00 +26°C° 0 mm 7 mps 717 mmHg 20%
    08:00 +28°C° 0 mm 8 mps 717 mmHg 17%
    09:00 +32°C° 0 mm 9 mps 717 mmHg 15%
    10:00 +34°C° 0 mm 8 mps 717 mmHg 14%
    11:00 +38°C° 0 mm 7 mps 716 mmHg 12%
    12:00 +40°C° 0 mm 6 mps 716 mmHg 11%
    13:00 +40°C° 0 mm 6 mps 715 mmHg 11%
    14:00 +41°C° 0 mm 6 mps 715 mmHg 11%
    15:00 +41°C° 0 mm 5 mps 714 mmHg 11%
    16:00 +40°C° 0 mm 5 mps 714 mmHg 13%
    17:00 +39°C° 0 mm 6 mps 714 mmHg 15%
    18:00 +38°C° 0 mm 6 mps 714 mmHg 17%
    19:00 +36°C° 0 mm 6 mps 714 mmHg 20%
    20:00 +34°C° 0 mm 6 mps 714 mmHg 23%
    21:00 +33°C° 0 mm 5 mps 715 mmHg 26%
    22:00 +32°C° 0 mm 5 mps 715 mmHg 26%
    23:00 +32°C° 0 mm 5 mps 715 mmHg 26%

    Tomorrow, 25 October, Thursday

    Time Temperature Precipitation Wind Pressure Humidity
    00:00 +30°C° 0 mm 4 mps 715 mmHg 25%
    01:00 +30°C° 0 mm 4 mps 714 mmHg 26%
    02:00 +30°C° 0 mm 4 mps 714 mmHg 26%
    03:00 +30°C° 0 mm 4 mps 714 mmHg 26%
    04:00 +30°C° 0.1 mm 3 mps 714 mmHg 26%
    05:00 +29°C° 0.1 mm 3 mps 715 mmHg 27%
    06:00 +29°C° 0.1 mm 3 mps 715 mmHg 27%
    07:00 +31°C° 0.1 mm 3 mps 715 mmHg 24%
    08:00 +35°C° 0.1 mm 4 mps 716 mmHg 20%
    09:00 +37°C° 0.1 mm 4 mps 716 mmHg 17%
    10:00 +39°C° 0 mm 5 mps 716 mmHg 17%
    11:00 +41°C° 0 mm 5 mps 716 mmHg 16%
    12:00 +42°C° 0 mm 6 mps 715 mmHg 16%
    13:00 +40°C° 0.6 mm 7 mps 715 mmHg 21%
    14:00 +38°C° 0.6 mm 7 mps 714 mmHg 27%
    15:00 +35°C° 0.6 mm 8 mps 713 mmHg 33%
    16:00 +35°C° 0.3 mm 8 mps 714 mmHg 31%
    17:00 +36°C° 0.3 mm 7 mps 714 mmHg 29%
    18:00 +36°C° 0.3 mm 7 mps 715 mmHg 27%
    19:00 +35°C° 0 mm 6 mps 715 mmHg 29%
    20:00 +34°C° 0 mm 6 mps 715 mmHg 30%
    21:00 +34°C° 0 mm 5 mps 716 mmHg 32%
    22:00 +33°C° 0 mm 6 mps 716 mmHg 33%
    23:00 +33°C° 0 mm 7 mps 716 mmHg 34%

    Day after tomorrow, 26 October, Friday

    Time Temperature Precipitation Wind Pressure Humidity
    00:00 +32°C° 0 mm 8 mps 716 mmHg 35%
    01:00 +30°C° 1.3 mm 6 mps 716 mmHg 40%
    02:00 +29°C° 1.3 mm 3 mps 716 mmHg 45%
    03:00 +28°C° 1.3 mm 1 mps 715 mmHg 50%
    04:00 +27°C° 0.9 mm 3 mps 716 mmHg 52%
    05:00 +27°C° 0.9 mm 4 mps 716 mmHg 55%
    06:00 +26°C° 0.9 mm 6 mps 717 mmHg 58%
    07:00 +28°C° 0.1 mm 7 mps 717 mmHg 51%
    08:00 +30°C° 0.1 mm 7 mps 718 mmHg 43%
    09:00 +33°C° 0.1 mm 8 mps 719 mmHg 36%
    10:00 +35°C° 0 mm 8 mps 718 mmHg 32%
    11:00 +38°C° 0 mm 8 mps 718 mmHg 28%
    12:00 +39°C° 0 mm 8 mps 718 mmHg 25%
    13:00 +38°C° 0.1 mm 7 mps 717 mmHg 26%
    14:00 +35°C° 0.1 mm 7 mps 716 mmHg 28%
    15:00 +34°C° 0.1 mm 6 mps 716 mmHg 30%
    16:00 +34°C° 0.2 mm 6 mps 716 mmHg 32%
    17:00 +33°C° 0.2 mm 5 mps 716 mmHg 33%
    18:00 +33°C° 0.2 mm 5 mps 717 mmHg 35%
    19:00 +30°C° 1.3 mm 7 mps 717 mmHg 43%
    20:00 +28°C° 1.3 mm 9 mps 718 mmHg 51%
    21:00 +26°C° 1.3 mm 11 mps 719 mmHg 59%
    22:00 +24°C° 3.9 mm 9 mps 719 mmHg 64%
    23:00 +23°C° 3.9 mm 6 mps 719 mmHg 69%

    27 October, Saturday

    Time Temperature Precipitation Wind Pressure Humidity
    00:00 +22°C° 3.9 mm 4 mps 719 mmHg 73%
    01:00 +22°C° 1.4 mm 4 mps 718 mmHg 74%
    02:00 +22°C° 1.4 mm 4 mps 718 mmHg 75%
    03:00 +22°C° 1.4 mm 4 mps 717 mmHg 76%
    04:00 +22°C° 1.3 mm 4 mps 717 mmHg 75%
    05:00 +21°C° 1.3 mm 4 mps 717 mmHg 73%
    06:00 +21°C° 1.3 mm 3 mps 717 mmHg 72%
    07:00 +21°C° 0.8 mm 4 mps 718 mmHg 70%
    08:00 +21°C° 0.8 mm 5 mps 718 mmHg 69%
    09:00 +21°C° 0.8 mm 5 mps 718 mmHg 67%
    10:00 +22°C° 0.4 mm 5 mps 718 mmHg 61%
    11:00 +25°C° 0.4 mm 5 mps 717 mmHg 56%
    12:00 +26°C° 0.4 mm 5 mps 717 mmHg 50%
    13:00 +27°C° 0 mm 5 mps 717 mmHg 47%
    14:00 +28°C° 0 mm 4 mps 716 mmHg 45%
    15:00 +29°C° 0 mm 4 mps 715 mmHg 42%
    16:00 +28°C° 0 mm 4 mps 716 mmHg 42%
    17:00 +28°C° 0 mm 5 mps 716 mmHg 42%
    18:00 +28°C° 0 mm 5 mps 716 mmHg 43%
    19:00 +27°C° 0.8 mm 4 mps 716 mmHg 49%
    20:00 +26°C° 0.8 mm 4 mps 716 mmHg 55%
    21:00 +25°C° 0.8 mm 3 mps 717 mmHg 61%
    22:00 +24°C° 0 mm 3 mps 716 mmHg 64%
    23:00 +24°C° 0 mm 3 mps 716 mmHg 66%

    28 October, Sunday

    Time Temperature Precipitation Wind Pressure Humidity
    00:00 +24°C° 0 mm 3 mps 716 mmHg 68%
    01:00 +22°C° 0 mm 3 mps 715 mmHg 70%
    02:00 +22°C° 0 mm 3 mps 715 mmHg 72%
    03:00 +21°C° 0 mm 3 mps 714 mmHg 74%
    04:00 +21°C° 0.3 mm 3 mps 714 mmHg 74%
    05:00 +21°C° 0.3 mm 2 mps 715 mmHg 74%
    06:00 +21°C° 0.3 mm 2 mps 715 mmHg 75%
    07:00 +24°C° 0.1 mm 2 mps 715 mmHg 68%
    08:00 +26°C° 0.1 mm 2 mps 715 mmHg 61%
    09:00 +27°C° 0.1 mm 1 mps 715 mmHg 55%
    10:00 +29°C° 0 mm 1 mps 715 mmHg 49%
    11:00 +30°C° 0 mm 1 mps 715 mmHg 42%
    12:00 +32°C° 0 mm 1 mps 714 mmHg 36%
    13:00 +32°C° 0 mm 2 mps 714 mmHg 34%
    14:00 +34°C° 0 mm 3 mps 713 mmHg 32%
    15:00 +34°C° 0 mm 3 mps 713 mmHg 29%
    16:00 +34°C° 0 mm 4 mps 713 mmHg 31%
    17:00 +33°C° 0 mm 5 mps 714 mmHg 32%
    18:00 +33°C° 0 mm 5 mps 714 mmHg 34%
    19:00 +30°C° 0.1 mm 6 mps 714 mmHg 39%
    20:00 +29°C° 0.1 mm 7 mps 715 mmHg 44%
    21:00 +27°C° 0.1 mm 8 mps 715 mmHg 50%
    22:00 +26°C° 0.4 mm 8 mps 716 mmHg 54%
    23:00 +24°C° 0.4 mm 8 mps 716 mmHg 58%

    29 October, Monday

    Time Temperature Precipitation Wind Pressure Humidity
    00:00 +23°C° 0.4 mm 8 mps 716 mmHg 63%
    01:00 +22°C° 0.4 mm 7 mps 716 mmHg 64%
    02:00 +22°C° 0.4 mm 6 mps 716 mmHg 65%
    03:00 +21°C° 0.4 mm 6 mps 716 mmHg 67%
    04:00 +21°C° 0.1 mm 5 mps 716 mmHg 67%
    05:00 +21°C° 0.1 mm 5 mps 716 mmHg 68%
    06:00 +21°C° 0.1 mm 5 mps 717 mmHg 68%
    07:00 +22°C° 0 mm 5 mps 717 mmHg 63%
    08:00 +23°C° 0 mm 5 mps 717 mmHg 58%
    09:00 +26°C° 0 mm 5 mps 717 mmHg 53%
    10:00 +27°C° 0 mm 4 mps 717 mmHg 49%
    11:00 +28°C° 0 mm 3 mps 717 mmHg 44%
    12:00 +30°C° 0 mm 2 mps 716 mmHg 40%
    13:00 +31°C° 0 mm 2 mps 716 mmHg 36%
    14:00 +32°C° 0 mm 2 mps 715 mmHg 33%
    15:00 +33°C° 0 mm 1 mps 715 mmHg 30%
    16:00 +34°C° 0 mm 2 mps 715 mmHg 30%
    17:00 +32°C° 0 mm 2 mps 715 mmHg 29%
    18:00 +33°C° 0 mm 3 mps 716 mmHg 29%
    19:00 +32°C° 0 mm 4 mps 716 mmHg 31%
    20:00 +32°C° 0 mm 4 mps 716 mmHg 33%
    21:00 +30°C° 0 mm 5 mps 717 mmHg 35%
    22:00 +29°C° 0 mm 6 mps 717 mmHg 39%
    23:00 +28°C° 0 mm 6 mps 717 mmHg 42%

    30 October, Tuesday

    Time Temperature Precipitation Wind Pressure Humidity
    00:00 +27°C° 0 mm 6 mps 717 mmHg 46%
    01:00 +26°C° 0 mm 6 mps 717 mmHg 49%
    02:00 +26°C° 0 mm 6 mps 717 mmHg 52%
    03:00 +25°C° 0 mm 5 mps 717 mmHg 54%
    04:00 +25°C° 0 mm 5 mps 717 mmHg 55%
    05:00 +23°C° 0 mm 5 mps 717 mmHg 57%
    06:00 +23°C° 0 mm 4 mps 718 mmHg 58%
    07:00 +26°C° 0 mm 4 mps 718 mmHg 51%
    08:00 +27°C° 0 mm 4 mps 718 mmHg 45%
    09:00 +29°C° 0 mm 4 mps 719 mmHg 39%
    10:00 +30°C° 0 mm 3 mps 718 mmHg 35%
    11:00 +32°C° 0 mm 2 mps 718 mmHg 31%
    12:00 +33°C° 0 mm 1 mps 718 mmHg 28%
    13:00 +34°C° 0 mm 1 mps 717 mmHg 25%
    14:00 +34°C° 0 mm 1 mps 717 mmHg 22%
    15:00 +35°C° 0 mm 1 mps 716 mmHg 20%
    16:00 +36°C° 0 mm 2 mps 716 mmHg 19%
    17:00 +36°C° 0 mm 2 mps 717 mmHg 19%
    18:00 +36°C° 0 mm 2 mps 717 mmHg 18%
    19:00 +35°C° 0 mm 3 mps 717 mmHg 19%
    20:00 +34°C° 0 mm 3 mps 718 mmHg 21%
    21:00 +33°C° 0 mm 3 mps 718 mmHg 22%
    22:00 +32°C° 0 mm 4 mps 718 mmHg 23%
    23:00 +32°C° 0 mm 4 mps 718 mmHg 24%
    Show more